TimePDT,TemperatureF,Dew PointF,Humidity,Sea Level PressureIn,VisibilityMPH,Wind Direction,Wind SpeedMPH,Gust SpeedMPH,PrecipitationIn,Events,Conditions,WindDirDegrees,DateUTC
12:55 AM,59.0,53.1,81,30.07,10.0,East,3.5,-,N/A,,Clear,100,2012-10-14 07:55:00
1:55 AM,59.0,52.0,78,30.08,10.0,Calm,Calm,-,N/A,,Clear,0,2012-10-14 08:55:00
2:55 AM,55.9,51.1,84,30.07,10.0,Calm,Calm,-,N/A,,Clear,0,2012-10-14 09:55:00
3:55 AM,57.0,52.0,83,30.07,10.0,ENE,4.6,-,N/A,,Clear,60,2012-10-14 10:55:00
4:55 AM,54.0,50.0,86,30.07,10.0,NNE,3.5,-,N/A,,Clear,20,2012-10-14 11:55:00
5:55 AM,55.0,48.9,80,30.07,10.0,NE,3.5,-,N/A,,Clear,40,2012-10-14 12:55:00
6:55 AM,52.0,48.0,86,30.07,10.0,Calm,Calm,-,N/A,,Clear,0,2012-10-14 13:55:00
7:55 AM,57.9,52.0,81,30.08,10.0,Calm,Calm,-,N/A,,Clear,0,2012-10-14 14:55:00
8:55 AM,64.9,52.0,63,30.08,10.0,Calm,Calm,-,N/A,,Clear,0,2012-10-14 15:55:00
9:55 AM,73.0,55.9,55,30.06,10.0,Calm,Calm,-,N/A,,Clear,0,2012-10-14 16:55:00
10:55 AM,82.9,52.0,34,30.05,10.0,SSW,4.6,-,N/A,,Clear,200,2012-10-14 17:55:00
11:55 AM,82.0,55.9,41,30.03,10.0,SW,6.9,-,N/A,,Clear,230,2012-10-14 18:55:00
12:55 PM,84.0,55.9,38,30.01,10.0,WSW,10.4,-,N/A,,Clear,240,2012-10-14 19:55:00
1:55 PM,81.0,55.0,41,30.00,10.0,WSW,11.5,-,N/A,,Clear,250,2012-10-14 20:55:00
2:55 PM,79.0,54.0,42,29.99,10.0,SW,10.4,-,N/A,,Clear,220,2012-10-14 21:55:00
3:55 PM,77.0,54.0,45,29.98,10.0,SW,10.4,-,N/A,,Clear,230,2012-10-14 22:55:00
4:55 PM,75.0,57.0,53,29.97,10.0,SW,5.8,-,N/A,,Clear,220,2012-10-14 23:55:00
5:55 PM,72.0,57.0,59,29.96,10.0,SSW,5.8,-,N/A,,Clear,210,2012-10-15 00:55:00
6:55 PM,68.0,57.9,70,29.97,10.0,West,3.5,-,N/A,,Clear,270,2012-10-15 01:55:00
7:55 PM,66.0,59.0,78,29.98,10.0,Calm,Calm,-,N/A,,Clear,0,2012-10-15 02:55:00
8:55 PM,64.0,57.9,80,29.98,10.0,Calm,Calm,-,N/A,,Clear,0,2012-10-15 03:55:00
9:55 PM,64.0,55.9,75,29.98,10.0,West,4.6,-,N/A,,Clear,270,2012-10-15 04:55:00
10:55 PM,61.0,55.0,81,29.99,10.0,Calm,Calm,-,N/A,,Clear,0,2012-10-15 05:55:00
11:55 PM,62.1,54.0,75,29.98,10.0,Calm,Calm,-,N/A,,Clear,0,2012-10-15 06:55:00